TimeEDT,TemperatureF,Dew PointF,Humidity,Sea Level PressureIn,VisibilityMPH,Wind Direction,Wind SpeedMPH,Gust SpeedMPH,PrecipitationIn,Events,Conditions,WindDirDegrees,DateUTC
12:56 AM,52.9,47.8,83,30.24,10.0,Calm,Calm,-,N/A,,Clear,0,2013-06-20 04:56:00
1:56 AM,50.0,47.8,92,30.24,10.0,Calm,Calm,-,N/A,,Clear,0,2013-06-20 05:56:00
2:56 AM,50.0,47.8,92,30.24,10.0,Calm,Calm,-,N/A,,Clear,0,2013-06-20 06:56:00
3:56 AM,47.8,47.8,100,30.24,10.0,Calm,Calm,-,N/A,,Clear,0,2013-06-20 07:56:00
4:56 AM,47.8,46.9,97,30.25,6.0,Calm,Calm,-,N/A,,Clear,0,2013-06-20 08:56:00
5:56 AM,46.9,45.9,96,30.26,10.0,Calm,Calm,-,N/A,,Clear,0,2013-06-20 09:56:00
6:56 AM,50.9,48.9,93,30.27,10.0,Calm,Calm,-,N/A,,Clear,0,2013-06-20 10:56:00
7:56 AM,55.9,50.9,83,30.27,10.0,Calm,Calm,-,N/A,,Clear,0,2013-06-20 11:56:00
8:56 AM,61.0,52.9,75,30.30,10.0,Calm,Calm,-,N/A,,Clear,0,2013-06-20 12:56:00
9:56 AM,68.0,55.9,65,30.30,10.0,Calm,Calm,-,N/A,,Clear,0,2013-06-20 13:56:00
10:56 AM,73.9,47.8,40,30.30,10.0,Variable,3.5,-,N/A,,Clear,0,2013-06-20 14:56:00
11:56 AM,73.9,50.0,43,30.29,10.0,Variable,3.5,-,N/A,,Clear,0,2013-06-20 15:56:00
12:56 PM,75.9,47.8,37,30.28,10.0,Calm,Calm,-,N/A,,Clear,0,2013-06-20 16:56:00
2:56 PM,77.9,47.8,35,30.26,10.0,Variable,3.5,-,N/A,,Clear,0,2013-06-20 18:56:00
3:56 PM,81.0,48.9,33,30.27,10.0,Variable,3.5,-,N/A,,Clear,0,2013-06-20 19:56:00
4:56 PM,79.9,50.0,35,30.27,10.0,Variable,3.5,-,N/A,,Clear,0,2013-06-20 20:56:00
5:56 PM,81.0,50.0,34,30.26,10.0,Calm,Calm,-,N/A,,Clear,0,2013-06-20 21:56:00
6:56 PM,79.0,48.9,35,30.25,10.0,NNE,4.6,-,N/A,,Clear,20,2013-06-20 22:56:00
7:56 PM,77.0,50.9,40,30.25,10.0,North,6.9,-,N/A,,Clear,350,2013-06-20 23:56:00
8:56 PM,68.9,55.9,63,30.25,10.0,North,3.5,-,N/A,,Clear,350,2013-06-21 00:56:00
9:56 PM,63.9,54.9,72,30.26,10.0,Calm,Calm,-,N/A,,Clear,0,2013-06-21 01:56:00
10:56 PM,63.0,54.9,75,30.27,10.0,ENE,4.6,-,N/A,,Clear,60,2013-06-21 02:56:00
11:56 PM,56.8,54.0,90,30.29,10.0,Calm,Calm,-,N/A,,Clear,0,2013-06-21 03:56:00